Погода в Пенафиеле

Португалия     41°11′47″N   8°17′40″W
темп.,
°C
ветер,
м/с
пор.,
м/с
влажн.,
%
обл.,
%
осадки,
мм/ч
давл.,
гПа
погр.,
м
19 сентября, вс
вс1901:00+12ссв11825 0.0 102137
04:00+11св11805 0.0 102024
07:00+11св117918 0.0 102117
10:00+18св124936 0.0 1022388
13:00+24сз22300 0.0 10211173
16:00+25зсз34270 0.0 10191548
19:00+20зсз365658 0.0 1020273
22:00+15ююз11855 0.0 102248
20 сентября, пн
пн2001:00+14св11874 0.0 102228
04:00+13св12880 0.0 102129
07:00+12св22910 0.0 102250
10:00+19св34580 0.0 1022573
13:00+24св35350 0.0 10211810
16:00+26ссв35280 0.0 10192375
19:00+22с59380 0.0 1019567
22:00+15св36580 0.0 1022159
21 сентября, вт
вт2101:00+14всв24630 0.0 102374
04:00+12св35660 0.0 1023111
07:00+11всв37720 0.0 1023167
10:00+18всв510460 0.0 10231061
13:00+23всв610310 0.0 10211824
16:00+25всв6102814 0.0 10192696
19:00+22в510375 0.0 10191273
22:00+18всв310483 0.0 1020409
22 сентября, ср
ср2201:00+16св411600 0.0 1020594
04:00+16всв51258100 0.0 1018987
07:00+15всв41264100 0.0 1018524
10:00+20в6114919 0.0 1018784
13:00+25в573844 0.0 10171462
16:00+28в47327 0.0 10152577
19:00+24всв384457 0.1 1015199
22:00+18в116636 0.3 101716
23 сентября, чт
чт2301:00+17в22617 0.3 101632
04:00+16всв236522 0.0 101657
07:00+15всв34714 0.0 101688
10:00+22в484942 0.0 1016639
13:00+28вюв34364 0.0 10151332
16:00+29в233112 0.0 10132188
19:00+25сз1144100 0.0 101346
22:00+20ююв2367100 0.1 101686